TimeCDT,TemperatureF,Dew PointF,Humidity,Sea Level PressureIn,VisibilityMPH,Wind Direction,Wind SpeedMPH,Gust SpeedMPH,PrecipitationIn,Events,Conditions,WindDirDegrees,DateUTC
12:53 AM,39.0,32.0,76,30.06,10.0,SE,10.4,-,N/A,,Overcast,140,2012-10-31 05:53:00
1:53 AM,39.0,32.0,76,30.06,10.0,SE,9.2,-,N/A,,Overcast,140,2012-10-31 06:53:00
2:53 AM,39.9,32.0,73,30.06,10.0,SSE,9.2,-,N/A,,Overcast,160,2012-10-31 07:53:00
3:53 AM,39.0,32.0,76,30.04,10.0,SSE,10.4,-,N/A,,Mostly Cloudy,150,2012-10-31 08:53:00
4:53 AM,37.9,32.0,79,30.02,10.0,SSE,9.2,-,N/A,,Overcast,150,2012-10-31 09:53:00
5:53 AM,37.9,32.0,79,30.02,10.0,SSE,6.9,-,N/A,,Overcast,150,2012-10-31 10:53:00
6:53 AM,39.0,32.0,76,30.01,10.0,SSE,9.2,-,N/A,,Overcast,160,2012-10-31 11:53:00
7:53 AM,37.9,32.0,79,29.99,10.0,SSE,9.2,-,N/A,,Mostly Cloudy,150,2012-10-31 12:53:00
8:53 AM,37.9,32.0,79,30.00,10.0,SSE,9.2,-,N/A,,Mostly Cloudy,160,2012-10-31 13:53:00
9:53 AM,41.0,33.1,73,30.00,10.0,South,11.5,-,N/A,,Mostly Cloudy,180,2012-10-31 14:53:00
10:53 AM,43.0,30.9,62,29.99,10.0,SW,12.7,-,N/A,,Mostly Cloudy,220,2012-10-31 15:53:00
11:53 AM,45.0,33.1,63,29.98,10.0,SSW,6.9,-,N/A,,Mostly Cloudy,200,2012-10-31 16:53:00
12:53 PM,46.0,33.1,61,29.96,10.0,SSW,4.6,-,N/A,,Overcast,200,2012-10-31 17:53:00
1:53 PM,46.4,33.8,62,29.93,10.0,South,5.8,-,N/A,,Overcast,180,2012-10-31 18:53:00
2:53 PM,48.9,35.1,59,29.95,10.0,NW,4.6,-,N/A,,Overcast,320,2012-10-31 19:53:00
3:53 PM,48.9,37.0,64,29.95,10.0,NW,11.5,-,N/A,,Overcast,320,2012-10-31 20:53:00
4:53 PM,48.0,39.0,71,29.97,10.0,North,18.4,-,N/A,,Overcast,350,2012-10-31 21:53:00
5:21 PM,46.4,37.4,71,29.96,10.0,NNW,18.4,-,N/A,,Overcast,340,2012-10-31 22:21:00
5:53 PM,45.0,37.9,76,29.99,10.0,North,18.4,25.3,N/A,,Overcast,350,2012-10-31 22:53:00
6:31 PM,42.8,37.4,81,29.98,8.0,North,20.7,27.6,N/A,,Overcast,350,2012-10-31 23:31:00
6:53 PM,42.1,37.9,85,30.02,9.0,North,20.7,27.6,N/A,,Overcast,350,2012-10-31 23:53:00
7:05 PM,41.0,37.4,87,30.00,10.0,North,23.0,32.2,N/A,,Overcast,350,2012-11-01 00:05:00
7:53 PM,41.0,37.0,86,30.05,10.0,North,21.9,31.1,N/A,,Overcast,360,2012-11-01 00:53:00
8:28 PM,39.2,35.6,87,30.03,10.0,North,18.4,28.8,N/A,,Overcast,350,2012-11-01 01:28:00
8:53 PM,39.0,35.1,86,30.06,10.0,NNW,19.6,26.5,N/A,,Overcast,340,2012-11-01 01:53:00
9:53 PM,37.9,34.0,86,30.08,10.0,NNW,19.6,26.5,N/A,,Overcast,340,2012-11-01 02:53:00
10:53 PM,37.0,32.0,82,30.09,10.0,NNW,20.7,27.6,N/A,,Overcast,340,2012-11-01 03:53:00
11:26 PM,35.6,30.2,81,30.07,10.0,North,20.7,26.5,0.00,,Light Drizzle,350,2012-11-01 04:26:00
11:53 PM,35.1,30.0,82,30.10,10.0,North,18.4,-,0.00,,Overcast,350,2012-11-01 04:53:00